Time,TemperatureF,DewpointF,PressureIn,WindDirection,WindDirectionDegrees,WindSpeedMPH,WindSpeedGustMPH,Humidity,HourlyPrecipIn,Conditions,Clouds,dailyrainin,SoftwareType,DateUTC
2013-06-28 00:06:00,66.5,65.0,29.61,NW,309,0.0,0.0,96,0.00,,,0.15,weatherlink.com 1.10,2013-06-28 04:06:00,
2013-06-28 00:21:00,66.3,66.0,29.61,NW,309,0.0,0.0,97,0.00,,,0.00,weatherlink.com 1.10,2013-06-28 04:21:00,
2013-06-28 00:36:00,66.3,65.0,29.60,NW,309,0.0,0.0,96,0.00,,,0.00,weatherlink.com 1.10,2013-06-28 04:36:00,
2013-06-28 00:51:00,66.4,66.0,29.61,NW,309,0.0,0.0,97,0.00,,,0.00,weatherlink.com 1.10,2013-06-28 04:51:00,
2013-06-28 01:06:00,66.3,66.0,29.60,NW,309,0.0,0.0,97,0.00,,,0.00,weatherlink.com 1.10,2013-06-28 05:06:00,
2013-06-28 01:21:00,66.2,65.0,29.60,NW,309,0.0,0.0,97,0.00,,,0.00,weatherlink.com 1.10,2013-06-28 05:21:00,
2013-06-28 01:36:00,66.1,65.0,29.61,NW,309,0.0,0.0,97,0.00,,,0.00,weatherlink.com 1.10,2013-06-28 05:36:00,
2013-06-28 01:51:00,65.9,65.0,29.60,NW,309,0.0,0.0,97,0.01,,,0.01,weatherlink.com 1.10,2013-06-28 05:51:00,
2013-06-28 02:06:00,65.6,65.0,29.59,NW,309,0.0,0.0,96,0.03,,,0.03,weatherlink.com 1.10,2013-06-28 06:06:00,
2013-06-28 02:21:00,65.2,64.0,29.58,NW,309,0.0,0.0,96,0.03,,,0.03,weatherlink.com 1.10,2013-06-28 06:21:00,
2013-06-28 02:36:00,65.0,64.0,29.57,NW,309,0.0,0.0,96,0.04,,,0.04,weatherlink.com 1.10,2013-06-28 06:36:00,
2013-06-28 02:51:00,65.0,64.0,29.56,NW,309,0.0,0.0,97,0.03,,,0.04,weatherlink.com 1.10,2013-06-28 06:51:00,
2013-06-28 03:06:00,64.9,64.0,29.55,NW,309,0.0,0.0,97,0.01,,,0.04,weatherlink.com 1.10,2013-06-28 07:06:00,
2013-06-28 03:21:00,64.8,64.0,29.56,NW,309,0.0,0.0,97,0.01,,,0.04,weatherlink.com 1.10,2013-06-28 07:21:00,
2013-06-28 03:36:00,64.8,64.0,29.55,NW,309,0.0,0.0,97,0.00,,,0.04,weatherlink.com 1.10,2013-06-28 07:36:00,
2013-06-28 03:51:00,64.6,64.0,29.54,NW,309,0.0,0.0,97,0.00,,,0.04,weatherlink.com 1.10,2013-06-28 07:51:00,
2013-06-28 04:06:00,64.5,64.0,29.54,NW,309,0.0,0.0,97,0.00,,,0.04,weatherlink.com 1.10,2013-06-28 08:06:00,
2013-06-28 04:21:00,64.5,64.0,29.55,NW,309,0.0,0.0,97,0.00,,,0.04,weatherlink.com 1.10,2013-06-28 08:21:00,
2013-06-28 04:36:00,64.4,64.0,29.54,NW,309,0.0,0.0,97,0.00,,,0.04,weatherlink.com 1.10,2013-06-28 08:36:00,
2013-06-28 04:51:00,64.2,63.0,29.54,NW,309,0.0,0.0,97,0.00,,,0.04,weatherlink.com 1.10,2013-06-28 08:51:00,
2013-06-28 05:06:00,64.2,63.0,29.54,NW,309,0.0,0.0,97,0.00,,,0.04,weatherlink.com 1.10,2013-06-28 09:06:00,
2013-06-28 05:21:00,64.2,63.0,29.55,NW,309,0.0,0.0,97,0.00,,,0.04,weatherlink.com 1.10,2013-06-28 09:21:00,
2013-06-28 05:36:00,64.2,63.0,29.55,NW,309,0.0,0.0,97,0.00,,,0.04,weatherlink.com 1.10,2013-06-28 09:36:00,
2013-06-28 05:51:00,64.2,63.0,29.55,NW,309,0.0,0.0,97,0.00,,,0.04,weatherlink.com 1.10,2013-06-28 09:51:00,
2013-06-28 06:06:00,64.2,63.0,29.55,NW,309,0.0,0.0,97,0.00,,,0.04,weatherlink.com 1.10,2013-06-28 10:06:00,
2013-06-28 06:21:00,64.5,64.0,29.55,NW,309,0.0,0.0,97,0.00,,,0.04,weatherlink.com 1.10,2013-06-28 10:21:00,
2013-06-28 06:36:00,64.7,64.0,29.55,NW,309,0.0,0.0,97,0.00,,,0.04,weatherlink.com 1.10,2013-06-28 10:36:00,
2013-06-28 06:51:00,64.9,64.0,29.55,NW,309,0.0,0.0,97,0.00,,,0.04,weatherlink.com 1.10,2013-06-28 10:51:00,
2013-06-28 07:06:00,65.0,64.0,29.55,NE,56,0.0,0.0,97,0.01,,,0.05,weatherlink.com 1.10,2013-06-28 11:06:00,
2013-06-28 07:21:00,65.1,64.0,29.55,NE,56,0.0,0.0,97,0.02,,,0.06,weatherlink.com 1.10,2013-06-28 11:21:00,
2013-06-28 07:36:00,65.2,65.0,29.55,NE,56,0.0,0.0,98,0.03,,,0.07,weatherlink.com 1.10,2013-06-28 11:36:00,
2013-06-28 07:51:00,65.4,65.0,29.55,NE,56,0.0,0.0,98,0.04,,,0.08,weatherlink.com 1.10,2013-06-28 11:51:00,
2013-06-28 08:06:00,65.6,65.0,29.54,NE,56,0.0,0.0,97,0.03,,,0.08,weatherlink.com 1.10,2013-06-28 12:06:00,
2013-06-28 08:21:00,65.8,65.0,29.54,NE,56,0.0,0.0,98,0.02,,,0.08,weatherlink.com 1.10,2013-06-28 12:21:00,
2013-06-28 08:36:00,66.0,66.0,29.53,NE,56,0.0,0.0,98,0.01,,,0.08,weatherlink.com 1.10,2013-06-28 12:36:00,
2013-06-28 08:51:00,66.1,66.0,29.53,NE,56,0.0,0.0,98,0.00,,,0.08,weatherlink.com 1.10,2013-06-28 12:51:00,
2013-06-28 09:06:00,66.0,65.0,29.53,NE,56,0.0,0.0,97,0.00,,,0.08,weatherlink.com 1.10,2013-06-28 13:06:00,
2013-06-28 09:21:00,66.1,65.0,29.53,NE,56,0.0,0.0,97,0.00,,,0.08,weatherlink.com 1.10,2013-06-28 13:21:00,
2013-06-28 09:36:00,66.2,65.0,29.52,NE,56,0.0,0.0,97,0.00,,,0.08,weatherlink.com 1.10,2013-06-28 13:36:00,
2013-06-28 09:51:00,66.3,66.0,29.52,NE,56,0.0,0.0,97,0.00,,,0.08,weatherlink.com 1.10,2013-06-28 13:51:00,
2013-06-28 10:06:00,66.2,65.0,29.53,NE,56,0.0,0.0,97,0.00,,,0.08,weatherlink.com 1.10,2013-06-28 14:06:00,
2013-06-28 10:21:00,66.3,66.0,29.52,NE,56,0.0,0.0,97,0.00,,,0.08,weatherlink.com 1.10,2013-06-28 14:21:00,
2013-06-28 10:36:00,66.7,66.0,29.52,NE,56,0.0,0.0,97,0.00,,,0.08,weatherlink.com 1.10,2013-06-28 14:36:00,
2013-06-28 10:52:00,66.9,66.0,29.51,NE,56,0.0,0.0,97,0.00,,,0.08,weatherlink.com 1.10,2013-06-28 14:52:00,
2013-06-28 11:07:00,66.9,66.0,29.51,NE,56,0.0,0.0,97,0.00,,,0.08,weatherlink.com 1.10,2013-06-28 15:07:00,
2013-06-28 11:22:00,67.0,66.0,29.51,NE,56,0.0,0.0,96,0.02,,,0.10,weatherlink.com 1.10,2013-06-28 15:22:00,
2013-06-28 11:37:00,67.3,67.0,29.50,NE,56,0.0,0.0,97,0.04,,,0.12,weatherlink.com 1.10,2013-06-28 15:37:00,
2013-06-28 11:52:00,67.2,66.0,29.51,NE,56,0.0,0.0,96,0.04,,,0.12,weatherlink.com 1.10,2013-06-28 15:52:00,
2013-06-28 12:07:00,67.4,66.0,29.51,NE,56,0.0,0.0,96,0.04,,,0.12,weatherlink.com 1.10,2013-06-28 16:07:00,
2013-06-28 12:22:00,68.1,67.0,29.51,NE,56,0.0,0.0,95,0.02,,,0.12,weatherlink.com 1.10,2013-06-28 16:22:00,
2013-06-28 12:37:00,69.8,67.0,29.50,NE,56,0.0,0.0,92,0.00,,,0.12,weatherlink.com 1.10,2013-06-28 16:37:00,
2013-06-28 12:52:00,70.6,67.0,29.50,NNE,31,0.0,0.0,88,0.00,,,0.12,weatherlink.com 1.10,2013-06-28 16:52:00,
2013-06-28 13:07:00,70.9,67.0,29.50,NNE,14,0.0,0.0,87,0.00,,,0.12,weatherlink.com 1.10,2013-06-28 17:07:00,
2013-06-28 13:22:00,71.1,67.0,29.49,North,5,0.0,0.0,86,0.00,,,0.12,weatherlink.com 1.10,2013-06-28 17:22:00,
2013-06-28 13:37:00,71.4,67.0,29.49,North,5,0.0,0.0,85,0.00,,,0.12,weatherlink.com 1.10,2013-06-28 17:37:00,
2013-06-28 13:52:00,71.0,67.0,29.48,North,5,0.0,0.0,88,0.00,,,0.12,weatherlink.com 1.10,2013-06-28 17:52:00,
2013-06-28 14:07:00,69.6,66.0,29.49,SSE,148,4.0,6.0,89,0.15,,,0.27,weatherlink.com 1.10,2013-06-28 18:07:00,
2013-06-28 14:22:00,67.2,65.0,29.49,NW,309,0.0,1.0,93,0.42,,,0.54,weatherlink.com 1.10,2013-06-28 18:22:00,
2013-06-28 14:37:00,66.7,65.0,29.48,NW,309,0.0,0.0,95,0.44,,,0.56,weatherlink.com 1.10,2013-06-28 18:37:00,
2013-06-28 14:52:00,66.8,65.0,29.48,NW,309,0.0,0.0,95,0.45,,,0.57,weatherlink.com 1.10,2013-06-28 18:52:00,
2013-06-28 15:07:00,67.2,66.0,29.48,NW,309,0.0,1.0,96,0.32,,,0.59,weatherlink.com 1.10,2013-06-28 19:07:00,
2013-06-28 15:22:00,67.3,66.0,29.48,WNW,298,0.0,3.0,96,0.07,,,0.61,weatherlink.com 1.10,2013-06-28 19:22:00,
2013-06-28 15:37:00,67.3,66.0,29.47,WNW,298,0.0,0.0,95,0.06,,,0.63,weatherlink.com 1.10,2013-06-28 19:37:00,
2013-06-28 15:52:00,67.5,66.0,29.47,WNW,288,0.0,1.0,95,0.06,,,0.63,weatherlink.com 1.10,2013-06-28 19:52:00,
2013-06-28 16:07:00,67.6,66.0,29.47,NW,325,0.0,4.0,95,0.04,,,0.63,weatherlink.com 1.10,2013-06-28 20:07:00,
2013-06-28 16:22:00,67.7,66.0,29.47,ENE,65,0.0,3.0,95,0.02,,,0.63,weatherlink.com 1.10,2013-06-28 20:22:00,
2013-06-28 16:37:00,68.2,67.0,29.47,West,270,0.0,2.0,95,0.00,,,0.63,weatherlink.com 1.10,2013-06-28 20:37:00,
2013-06-28 16:52:00,68.1,66.0,29.47,WNW,293,0.0,1.0,94,0.00,,,0.63,weatherlink.com 1.10,2013-06-28 20:52:00,
2013-06-28 17:07:00,68.3,66.0,29.48,WNW,294,0.0,1.0,93,0.00,,,0.63,weatherlink.com 1.10,2013-06-28 21:07:00,
2013-06-28 17:22:00,67.8,66.0,29.48,WNW,294,0.0,2.0,93,0.00,,,0.63,weatherlink.com 1.10,2013-06-28 21:22:00,
2013-06-28 17:37:00,67.5,66.0,29.48,NNW,343,0.0,0.0,94,0.00,,,0.63,weatherlink.com 1.10,2013-06-28 21:37:00,
2013-06-28 17:52:00,67.2,66.0,29.48,NNW,334,0.0,2.0,94,0.02,,,0.65,weatherlink.com 1.10,2013-06-28 21:52:00,
2013-06-28 18:07:00,67.1,66.0,29.48,NNW,334,0.0,0.0,95,0.02,,,0.65,weatherlink.com 1.10,2013-06-28 22:07:00,
2013-06-28 18:22:00,67.0,66.0,29.48,NNW,334,0.0,1.0,95,0.02,,,0.65,weatherlink.com 1.10,2013-06-28 22:22:00,
2013-06-28 18:37:00,66.6,65.0,29.47,NNW,334,0.0,1.0,95,0.02,,,0.65,weatherlink.com 1.10,2013-06-28 22:37:00,
2013-06-28 18:52:00,66.1,65.0,29.48,NNW,334,0.0,0.0,95,0.20,,,0.85,weatherlink.com 1.10,2013-06-28 22:52:00,
2013-06-28 19:07:00,65.7,64.0,29.48,NNW,334,0.0,0.0,95,0.36,,,1.01,weatherlink.com 1.10,2013-06-28 23:07:00,
2013-06-28 19:22:00,65.2,64.0,29.48,NNW,344,0.0,0.0,95,0.53,,,1.18,weatherlink.com 1.10,2013-06-28 23:22:00,
2013-06-28 19:37:00,65.0,64.0,29.49,NNW,344,0.0,0.0,96,0.58,,,1.23,weatherlink.com 1.10,2013-06-28 23:37:00,
2013-06-28 19:52:00,64.9,64.0,29.49,NNW,333,0.0,1.0,96,0.39,,,1.24,weatherlink.com 1.10,2013-06-28 23:52:00,
2013-06-28 20:07:00,64.6,64.0,29.49,West,274,1.0,1.0,96,0.23,,,1.24,weatherlink.com 1.10,2013-06-29 00:07:00,
2013-06-28 20:22:00,64.2,63.0,29.49,WNW,292,0.0,0.0,96,0.07,,,1.25,weatherlink.com 1.10,2013-06-29 00:22:00,
2013-06-28 20:37:00,64.0,63.0,29.49,WNW,294,0.0,2.0,96,0.01,,,1.25,weatherlink.com 1.10,2013-06-29 00:37:00,
2013-06-28 20:52:00,63.6,63.0,29.49,WNW,294,0.0,0.0,96,0.01,,,1.25,weatherlink.com 1.10,2013-06-29 00:52:00,
2013-06-28 21:07:00,63.5,62.0,29.49,NE,36,0.0,1.0,96,0.02,,,1.26,weatherlink.com 1.10,2013-06-29 01:07:00,
2013-06-28 21:22:00,63.2,62.0,29.50,North,350,0.0,0.0,96,0.01,,,1.26,weatherlink.com 1.10,2013-06-29 01:22:00,
2013-06-28 21:37:00,63.1,62.0,29.50,North,350,0.0,0.0,96,0.01,,,1.26,weatherlink.com 1.10,2013-06-29 01:37:00,
2013-06-28 21:52:00,63.1,62.0,29.50,North,350,0.0,1.0,96,0.01,,,1.26,weatherlink.com 1.10,2013-06-29 01:52:00,
2013-06-28 22:07:00,63.1,62.0,29.51,North,350,0.0,0.0,97,0.00,,,1.26,weatherlink.com 1.10,2013-06-29 02:07:00,
2013-06-28 22:22:00,63.1,62.0,29.51,North,350,0.0,0.0,97,0.00,,,1.26,weatherlink.com 1.10,2013-06-29 02:22:00,
2013-06-28 22:37:00,63.0,62.0,29.51,North,350,0.0,0.0,97,0.00,,,1.26,weatherlink.com 1.10,2013-06-29 02:37:00,
2013-06-28 22:52:00,62.8,62.0,29.50,North,350,0.0,0.0,97,0.02,,,1.28,weatherlink.com 1.10,2013-06-29 02:52:00,
2013-06-28 23:07:00,62.8,62.0,29.50,North,355,0.0,0.0,97,0.06,,,1.32,weatherlink.com 1.10,2013-06-29 03:07:00,
2013-06-28 23:22:00,62.7,62.0,29.50,North,355,0.0,0.0,97,0.07,,,1.33,weatherlink.com 1.10,2013-06-29 03:22:00,
2013-06-28 23:37:00,62.7,62.0,29.49,North,355,0.0,0.0,97,0.09,,,1.35,weatherlink.com 1.10,2013-06-29 03:37:00,
2013-06-28 23:52:00,62.7,62.0,29.49,North,355,0.0,0.0,97,0.07,,,1.35,weatherlink.com 1.10,2013-06-29 03:52:00,